Weather History for Wooster, OH

Change the Weather History Date:

Wednesday, September 4, 2013

  Actual Average Record
Temperature  
Mean Temperature 60 °F -  
Max Temperature 77 °F 76 °F 88 °F (2008)
Min Temperature 46 °F 52 °F 39 °F (1997)
Degree Days  
Heating Degree Days 4    
Growing Degree Days 10 (Base 50)    
Moisture  
Dew Point 50 °F    
Average Humidity 87    
Maximum Humidity 100    
Minimum Humidity 50    
Precipitation  
Precipitation 0.01 in - - ()
Sea Level Pressure  
Sea Level Pressure 30.10 in    
Wind  
Wind Speed 1 mph (West)    
Max Wind Speed 12 mph    
Max Gust Speed 16 mph    
Visibility 4 miles    
Events Fog    
Averages and records for this station are not official NWS values.
T = Trace of Precipitation, MM = Missing Value Source: NWS Daily Summary

Daily Weather History Graph

Daily Weather History Graph

Search for Another Location

Airport:

Trip Planner

Search our weather history database for the weather conditions in past years. The results will help you decide how hot, cold, wet, or windy it might be!

Date:

Astronomy

Sep. 04, 2013 Rise Set
Actual Time 6:57 AM EDT 7:54 PM EDT
Civil Twilight 6:29 AM EDT 8:22 PM EDT
Nautical Twilight 5:56 AM EDT 8:55 PM EDT
Astronomical Twilight 5:21 AM EDT 9:30 PM EDT
Moon 6:08 AM EDT (9/4) 7:13 PM EDT (9/4)
Length of Visible Light 13h 53m
Length of Day
12h 57m
Waning Crescent, 1% of the Moon is Illuminated
Sep 4
Waning Crescent
Sep 5
New
Sep 12
First Quarter
Sep 19
Full
Sep 26
Last Quarter

Hourly Weather History & Observations

Time (EDT) Temp. Dew Point Humidity Pressure Visibility Wind Dir Wind Speed Gust Speed Precip Events Conditions
12:37 AM 50.0 °F 48.2 °F 94% 30.08 in 1.8 mi Calm Calm - N/A   Clear
12:50 AM 50.0 °F 48.2 °F 94% 30.08 in 0.8 mi Calm Calm - N/A   Clear
12:56 AM 50.0 °F 48.0 °F 93% 30.09 in 0.2 mi Calm Calm - N/A Fog Fog
1:06 AM 48.2 °F 48.2 °F 100% 30.08 in 2.0 mi Calm Calm - N/A   Clear
1:13 AM 50.0 °F 48.2 °F 94% 30.08 in 1.0 mi Calm Calm - N/A   Clear
1:21 AM 50.0 °F 48.2 °F 94% 30.08 in 0.5 mi Calm Calm - N/A Fog Fog
1:26 AM 48.2 °F 46.4 °F 93% 30.08 in 1.5 mi Calm Calm - N/A   Clear
1:31 AM 48.2 °F 46.4 °F 93% 30.08 in 0.8 mi Calm Calm - N/A   Clear
1:56 AM 48.0 °F 46.9 °F 96% 30.09 in 0.2 mi Calm Calm - N/A Fog Fog
2:09 AM 48.2 °F 46.4 °F 93% 30.08 in 1.5 mi Calm Calm - N/A   Clear
2:11 AM 48.2 °F 46.4 °F 93% 30.08 in 4.0 mi Calm Calm - N/A   Clear
2:20 AM 48.2 °F 48.2 °F 100% 30.08 in 1.8 mi Calm Calm - N/A   Clear
2:23 AM 48.2 °F 48.2 °F 100% 30.08 in 0.8 mi Calm Calm - N/A   Clear
2:42 AM 46.4 °F 46.4 °F 100% 30.08 in 1.2 mi Calm Calm - N/A   Clear
2:56 AM 48.9 °F 46.9 °F 93% 30.09 in 0.8 mi Calm Calm - N/A   Clear
3:25 AM 48.2 °F 46.4 °F 93% 30.08 in 1.2 mi Calm Calm - N/A   Clear
3:32 AM 48.2 °F 46.4 °F 93% 30.08 in 3.0 mi Calm Calm - N/A   Clear
3:56 AM 48.9 °F 48.9 °F 100% 30.09 in 5.0 mi Calm Calm - N/A   Clear
4:56 AM 51.1 °F 50.0 °F 96% 30.10 in 6.0 mi Calm Calm - N/A   Clear
5:25 AM 46.4 °F 46.4 °F 100% 30.11 in 1.5 mi Calm Calm - 0.01 in   Clear
5:27 AM 46.4 °F 46.4 °F 100% 30.11 in 0.8 mi Calm Calm - 0.01 in   Clear
5:56 AM 46.9 °F 46.0 °F 97% 30.12 in 0.5 mi Calm Calm - 0.01 in Fog Fog
6:03 AM 46.4 °F 44.6 °F 93% 30.11 in 1.2 mi Calm Calm - N/A   Clear
6:09 AM 46.4 °F 44.6 °F 93% 30.11 in 3.0 mi Calm Calm - N/A   Clear
6:16 AM 46.4 °F 46.4 °F 100% 30.11 in 1.8 mi Calm Calm - N/A   Clear
6:29 AM 46.4 °F 46.4 °F 100% 30.12 in 3.0 mi Calm Calm - N/A   Clear
6:50 AM 46.4 °F 44.6 °F 93% 30.12 in 1.8 mi Calm Calm - N/A   Clear
6:51 AM 46.0 °F 45.0 °F 96% 30.13 in 1.5 mi Calm Calm - N/A   Clear
6:55 AM 46.4 °F 46.4 °F 100% 30.12 in 0.8 mi Calm Calm - N/A   Clear
7:09 AM 48.2 °F 46.4 °F 93% 30.12 in 1.2 mi Calm Calm - N/A   Clear
7:22 AM 46.4 °F 46.4 °F 100% 30.13 in 0.8 mi Calm Calm - N/A   Clear
7:47 AM 48.2 °F 48.2 °F 100% 30.14 in 1.2 mi Calm Calm - N/A   Clear
7:53 AM 50.0 °F 48.2 °F 94% 30.14 in 3.0 mi Calm Calm - N/A   Clear
7:56 AM 51.1 °F 50.0 °F 96% 30.14 in 4.0 mi Calm Calm - N/A   Clear
8:56 AM 57.9 °F 55.0 °F 90% 30.15 in 9.0 mi WSW 6.9 mph - N/A   Clear
9:56 AM 63.0 °F 57.0 °F 81% 30.15 in 10.0 mi West 5.8 mph - N/A   Clear
10:56 AM 66.9 °F 57.9 °F 73% 30.14 in 10.0 mi West 5.8 mph - N/A   Clear
11:56 AM 71.1 °F 57.0 °F 61% 30.13 in 10.0 mi WSW 8.1 mph 16.1 mph N/A   Clear
12:56 PM 73.0 °F 57.0 °F 57% 30.12 in 10.0 mi WSW 11.5 mph - N/A   Clear
1:56 PM 75.0 °F 57.9 °F 55% 30.11 in 10.0 mi WSW 8.1 mph - N/A   Clear
2:56 PM 75.9 °F 55.9 °F 50% 30.10 in 10.0 mi WNW 11.5 mph - N/A   Clear
3:56 PM 75.9 °F 55.9 °F 50% 30.09 in 10.0 mi West 9.2 mph - N/A   Clear
4:56 PM 75.9 °F 55.9 °F 50% 30.09 in 10.0 mi West 9.2 mph - N/A   Clear
5:56 PM 75.0 °F 57.0 °F 53% 30.08 in 10.0 mi West 10.4 mph - N/A   Clear
6:56 PM 73.0 °F 57.0 °F 57% 30.07 in 10.0 mi West 6.9 mph - N/A   Clear
7:56 PM 66.0 °F 57.0 °F 73% 30.09 in 10.0 mi WSW 3.5 mph - N/A   Clear
8:56 PM 60.1 °F 55.9 °F 86% 30.09 in 10.0 mi Calm Calm - 0.00 in   Clear
9:56 PM 57.0 °F 55.0 °F 93% 30.10 in 10.0 mi Calm Calm - N/A   Clear
10:56 PM 57.0 °F 54.0 °F 89% 30.10 in 10.0 mi Calm Calm - N/A   Clear
11:56 PM 57.0 °F 54.0 °F 89% 30.09 in 10.0 mi Calm Calm - N/A   Clear